Preview of NWS' New Version of Forecast
This preview is not operational and should not be used for support decisions.

Regional Weather Roundup (RWR)

Issued by National Weather Service (NWS)

                            
000
ASUS46 KPQR 250410
RWROR 

OREGON REGIONAL WEATHER ROUNDUP
NATIONAL WEATHER SERVICE PORTLAND OR
900 PM PDT SAT AUG 24 2019

NOTE: "FAIR" INDICATES FEW OR NO CLOUDS BELOW 12,000 FEET WITH
NO SIGNIFICANT WEATHER AND/OR OBSTRUCTIONS TO VISIBILITY.

ORZ001>013-250500-
NORTHWEST OREGON

  
CITY           SKY/WX    TMP DP  RH WIND       PRES   REMARKS
ASTORIA        CLOUDY    62  58  86 CALM      30.06R                  
TILLAMOOK      CLEAR     61  55  82 SW3       30.07R                  
NEWPORT        CLEAR     59  55  88 N7        30.08R                  
FLORENCE       FAIR      61  55  82 N5        30.03R                  
PORTLAND       PTCLDY    69  54  58 N9        30.01R                  
VANCOUVER WA   CLEAR     69  53  56 NW8       30.01R                  
SCAPPOOSE      CLEAR     66  55  67 N8        30.01R                  
HILLSBORO      CLEAR     66  54  65 NW10      30.02R                  
AURORA         CLEAR     70  55  59 N10       30.01R                  
MCMINNVILLE    PTCLDY    68  56  65 N3        30.00R                  
SALEM          CLEAR     69  54  58 NW12      29.99R                  
CORVALLIS      CLEAR     68  56  65 NW14      30.00R                  
EUGENE         PTCLDY    69  58  67 NW3       30.00R                  
CRESWELL       PTCLDY    73  59  60 N9        29.97R                  
$$

ORZ021-028-250500-
SOUTHWEST OREGON

  
CITY           SKY/WX    TMP DP  RH WIND       PRES   REMARKS
NORTH BEND     CLEAR     61  59  93 N10       30.06R                  
BROOKINGS      CLEAR     58  55  90 SE5       30.00R                  
ROSEBURG       CLEAR     76  56  49 VRB5      29.98R                  
SEXTON SUMMIT  CLEAR     64  46  52 N10       30.09R                  
GRANTS PASS    FAIR      79  48  34 VRB5      29.99R                  
MEDFORD        CLEAR     79  47  32 NE7       29.95R                  
$$

ORZ014>016-041-250500-
COLUMBIA GORGE

  
CITY           SKY/WX    TMP DP  RH WIND       PRES   REMARKS
TROUTDALE      CLEAR     70  55  59 VRB3      30.00R                  
HOOD RIVER     CLEAR     70  52  52 W3        29.97R                  
THE DALLES     CLEAR     75  52  44 W16G24    29.92R                  
$$

ORZ029>031-041-044-049-050-061>064-502-503-505>511-250500-
EASTERN OREGON

  
CITY           SKY/WX    TMP DP  RH WIND       PRES   REMARKS
MADRAS         CLEAR     64  46  52 N8        30.01R                  
REDMOND        CLEAR     70  44  39 E7        30.00R                  
BEND           CLEAR     70  43  37 NE6       30.01R                  
PRINEVILLE     CLEAR     68  41  37 NW8       30.01R                  
KLAMATH FALLS  PTCLDY    68  37  32 NW10      30.06R                  
LAKEVIEW       CLEAR     70  33  25 NW10      30.08R                  
HERMISTON      PTCLDY    76  50  40 SW18      29.85R                  
PENDLETON      PTCLDY    72  45  37 W12       29.89R                  
JOHN DAY       CLEAR     71  37  29 W5        30.00R                  
MEACHAM        PTCLDY    62  40  44 CALM      30.02R                  
LA GRANDE      PTCLDY    68  43  40 W7        29.97R                  
BAKER CITY     CLEAR     66  44  45 N3        29.98R                  
BURNS          CLEAR     68  31  25 NW10      30.01R                  
ROME             N/A     79  33  19 NW5       29.96R                  
ONTARIO        CLEAR     83  36  18 NW13      29.84R                  
$$